Location: Newark
(58.8333°N, 23.5833°E)
Time: 07:08:16
(UTC+00:00)

METEOR M2 - Pass Details

Date: 09 December 2019
Orbit: 819 x 827 km, 98.5° (Epoch: 26 January)

Event Time Altitude Azimuth Distance (km) Brightness Sun altitude
Exits shadow 14:57:08 12° 50° (NE) 2,318 ? -9.6°
Maximum altitude 14:58:33 13° 33° (NNE) 2,240 ? -9.8°
Drops below altitude 10° 15:00:48 10° 8° (N) 2,433 ? -10.0°
Sets 15:04:32 0° 342° (NNW) 3,368 ? -10.5°
